Regional Weather Roundup
Issued by NWS Kansas City/Pleasant Hill, MO

Home | Current Version | Previous Version | Graphics & Text | Print | Product List | Glossary Off
Versions: 1 2 3 4 5 6 7 8 9 10 11 12 13 14 15 16 17 18 19 20 21 22 23 24 25 26 27 28 29 30 31 32 33 34 35 36 37 38 39 40 41 42 43 44 45 46 47 48 49 50

723
ASUS43 KEAX 300110
RWREAX

WEATHER ROUNDUP FOR EASTERN KANSAS AND NORTHWEST MISSOURI
NATIONAL WEATHER SERVICE KANSAS CITY/PLEASANT HILL MO
800 PM CDT WED MAR 29 2017

KSZ040-057-103>105-MOZ028-029-037-043-300200-
...KANSAS CITY METROPOLITAN AREA...

CITY           SKY/WX    TMP DP  RH WIND       PRES   REMARKS
K.C. INTL      TSTM      54  53  97 NE12      29.66S
K.C. DOWNTOWN  MOCLDY    57  55  93 E10       29.65F
LEES SUMMIT    CLEAR     55  54  96 NE10      29.66F
OLATHE - IXD   TSTM      58  56  93 NE9       29.65S
OLATHE - OJC   MOCLDY    57  57 100 NE12      29.64F
LAWRENCE       LGT RAIN  56  55  97 NE14      29.63S

$$

MOZ001>008-011>017-020>025-030>033-038>040-044>046-053-054-300200-
...NORTHERN AND CENTRAL MISSOURI...

CITY           SKY/WX    TMP DP  RH WIND       PRES   REMARKS
ST. JOSEPH     MOCLDY    53  52  96 E7        29.67S
MOSBY          PTCLDY    55  52  88 E8        29.69R
WARRENSBURG    LGT RAIN  59  55  88 E16       29.66R
WHITEMAN AFB   MOCLDY    60  60 100 NW8       29.65R THUNDER
CLINTON        PTCLDY    64  57  77 SE5       29.64F
SEDALIA        MOCLDY    60  57  89 E7        29.67F
WARSAW         NOT AVBL
CHILLICOTHE      N/A     55  52  89 E14G22    29.72F
KIRKSVILLE     CLOUDY    50  49  96 E16       29.78F

$$

MOZ041-047>049-056>058-063>065-088>090-097-300200-
...EASTERN AND SOUTHERN MISSOURI...

CITY           SKY/WX    TMP DP  RH WIND       PRES   REMARKS
ST. LOUIS INTL CLOUDY    66  54  65 E15       29.80F
SPIRIT OF STL  MOCLDY    66  57  72 E10       29.77F
COLUMBIA       RAIN      61  58  90 E9        29.73S FOG
JEFFERSON CITY CLOUDY    64  60  87 E10       29.70F
ROLLA          TSTM      63  62  97 VRB5      29.72R FOG
OSAGE BEACH    MOCLDY    66  61  84 SE9       29.69F
SPRINGFIELD    PTCLDY    64  58  80 S7        29.67F
BRANSON        MOCLDY    68  59  73 S8G20     29.71S THUNDER
JOPLIN         PTCLDY    65  58  78 W8        29.65R
WEST PLAINS    CLOUDY    71  60  68 SE15G22   29.73S

$$

IAZ060-094-KSZ022-034>040-054-083-096-NEZ052-066-093-300200-
...KANSAS...SOUTHEAST NEBRASKA AND IOWA...

CITY           SKY/WX    TMP DP  RH WIND       PRES   REMARKS
TOPEKA         CLOUDY    57  56  96 E14       29.62R
MANHATTAN      HVY RAIN  47  45  93 NE12G20   29.64S FOG
EMPORIA        PTCLDY    58  53  84 S12       29.59S
CHANUTE        CLOUDY    59  55  87 S9        29.63S
WICHITA        LGT RAIN  48  47  96 NW20      29.59R FOG
OMAHA          LGT RAIN  42  37  82 NE18G28   29.85R FOG     WCI  34
LINCOLN        CLOUDY    42  40  92 NE25G36   29.81F WCI  32
FALLS CITY     CLOUDY    49  47  93 NE14      29.69F
LAMONI         CLOUDY    48  47  96 E15G24    29.75F
DES MOINES     LGT RAIN  44  42  93 E18G31    29.86F FOG

$$





USA.gov is the U.S. government's official web portal to all federal, state and local government web resources and services.